www.pogodaiklimat.ru

Погода и климат >> Архив погоды >> Россия >> Якутия >> Намцы


ПОГОДА в Намцах

  • Прогноз погоды в Намцах
  • Монитор погоды в Намцах

АРХИВ ПОГОДЫ в Намцах

Время (UTC), дата Ветер
(напр.,м/с)
 
Видим.   Явления Облачность Т
(С)
Тd
(С)
f
(%)
Тe
(С)
Тes
(С)
Комфортность P
(гПа)
Po
(гПа)
Тmin
(С)
Tmax
(С)
R
(мм)
R24
(мм)
S
(см)
21 12.07 штиль 0 20 км 3/0
[Ci sp]
+22.6 +16.9 70 +27 +30 душно 1006.7 996.4
00 13.07 В 2 50 км 9/0
[Cs]
+27.3 +19.0 61 +33 +39 очень
душно
1006.7 996.5 +17.4
03 13.07 В 2 50 км 9/1 1000 м
[Cu med, cong Cs]
+28.5 +13.8 41 +30 +40 жарко 1006.0 995.9
06 13.07 В 2 50 км 8/1 1000 м
[Cu med, cong Ci fib]
+32.0 +12.8 31 +33 +40 жарко 1004.5 994.5
09 13.07 ЮВ 2 50 км 6/1 1000 м
[Cu med, cong Ci fib]
+31.7 +13.7 33 +33 +35 жарко 1003.3 993.3
12 13.07 ЮЗ 1 50 км 9/0
[Ac cuf Ci fib]
+28.7 +16.9 49 +32 +33 душно 1003.7 993.6 +32.1
15 13.07 ЮВ 1 50 км 6/0
[Ci fib]
+21.1 +17.2 78 +25 +25 комфорт 1004.1 993.7
18 13.07 штиль 0 20 км дым 6/0
[Ci fib]
+18.3 +15.4 83 +19 +19 1004.1 993.7
21 13.07 В 1 20 км дым 3/0
[Ci fib]
+22.1 +16.5 71 +26 +28 душно 1004.3 994.0
00 14.07 Ю 3 20 км дым 1/0
[Ci fib]
+25.8 +15.2 52 +29 +35 душно 1004.9 994.7 +18.0
03 14.07 ЮВ 2 50 км 3/1 1000 м
[Cb calv Ci fib]
+30.9 +16.0 41 +34 +45 душно 1004.3 994.2
06 14.07 В 2 50 км гроза, ливневой дождь 8/4 1000 м
[Cb cap As trans]
+30.7 +15.1 39 +33 +36 душно 1003.6 993.6
09 14.07 СЗ 2 50 км {гроза} 8/3 1000 м
[Cb calv Ac As Ci fib]
+28.9 +17.4 50 +33 +34 очень
душно
1003.8 993.8
12 14.07 СЗ 1 50 км {гроза} 9/0
[Ac trans Cc]
+32.4 +18.3 43 +37 +37 очень
душно
1004.6 994.4
15 14.07 штиль 0 50 км 3/0
[Cs]
+20.0 +16.9 82 +22 +22 комфорт 1005.2 994.8
18 14.07 СЗ 2 50 км 3/0
[Ci fib]
+19.4 +15.7 79 +22 +22 комфорт 1005.6 995.2
21 14.07 З 2 50 км 3/0
[Ci fib]
+20.7 +15.7 73 +24 +26 комфорт 1006.5 996.1
00 15.07 СЗ 3 50 км 3/0
[Ci fib]
+24.2 +14.7 55 +27 +33 жарко 1006.6 996.3 +18.4
03 15.07 СЗ 4 50 км 4/0
[Ci fib]
+27.2 +11.5 38 +28 +36 жарко 1006.5 996.3
06 15.07 З 4 50 км 3/1 1500 м
[Cu med, cong Ci fib]
+28.6 +9.2 30 +29 +34 жарко 1005.9 995.8
09 15.07 СЗ 5
{10}
50 км 4/0
[Ac cuf Ci fib]
+27.3 +11.9 38 +28 +30 жарко 1006.1 995.9
12 15.07 СЗ 3 50 км 3/0
[Ac cuf Ci fib]
+24.8 +14.6 53 +27 +27 жарко 1007.1 996.8 +29.2
15 15.07 З 2 50 км 3/0
[Ac cuf Ci fib]
+19.8 +11.1 57 +22 +22 комфорт 1007.5 997.1
18 15.07 З 2 50 км 5/0
[Ac cast Ci fib]
+16.9 +9.7 63 +17 +17 1007.8 997.3
21 15.07 З 3 50 км 1/0
[Ac cast Ci fib]
+16.7 +9.2 61 +17 +18 1008.2 997.6
00 16.07 З 2 50 км 3/0
[Ac lent Ci fib]
+20.5 +11.9 58 +23 +30 комфорт 1008.1 997.6 +16.2
03 16.07 З 3 50 км 3/1 1000 м
[Cu med, cong Ac cast Ci fib]
+23.7 +12.3 49 +26 +34 жарко 1007.4 997.1
06 16.07 СЗ 4 50 км 6/1 1000 м
[Cb cap Ci fib]
+26.0 +8.5 33 +26 +31 жарко 1006.4 996.2
09 16.07 СЗ 5
{10}
50 км 3/1 1000 м
[Cb cap Ci fib]
+25.0 +2.1 22 +24 +25 комфорт 1006.1 995.8
12 16.07 З 3 20 км дым 1/1 1000 м
[Cb cap Ac lent Ci fib]
+21.5 +6.5 38 +22 +22 комфорт 1006.7 996.3 +26.9
15 16.07 З 2 20 км дым 3/0
[Ci fib]
+16.3 +4.1 44 +17 +17 1006.7 996.1
18 16.07 З 2 10 км дым 3/0
[Ci fib]
+13.4 +3.4 51 +13 +13 1006.0 995.3
21 16.07 З 3 10 км дым 1/0
[Ci fib]
+14.6 +4.1 49 +14 +15 1005.9 995.2
00 17.07 С 3 10 км дым 3/0
[Ci fib]
+19.7 +6.8 43 +21 +27 комфорт 1005.4 995.0 +12.6
03 17.07 СЗ 3 50 км 8/0
[Ac trans Ci fib]
+25.4 +7.3 32 +25 +34 комфорт 1004.0 993.6
06 17.07 ЮЗ 3 50 км 10/0
[Ac As Cs]
+26.9 +8.2 31 +27 +31 жарко 1002.1 992.0
09 17.07 З 3
{11}
50 км 10/0
[Ac As]
+23.7 +11.7 47 +25 +26 комфорт 1000.8 990.6
12 17.07 ЮЗ 3
{10}
10 км в посл. час ливневой дождь 8/5 1000 м
[Cb cap Ac cast]
+20.6 +14.4 68 +24 +24 комфорт 999.5 989.2 +28.1 0.5
15 17.07 З 3
{10}
10 км дым {ливн. осадки} 8/4 1000 м
[Cb cap Ac cast]
+18.4 +15.1 81 +19 +19 998.5 988.1
18 17.07 СЗ 4 50 км {ливн. осадки} 6/5 660 м
[Sc Ac cast]
+17.1 +13.0 77 +17 +17 998.1 987.6
21 17.07 З 4 50 км 9/5 600 м
[Sc Ac trans]
+14.0 +10.6 80 +13 +13 998.5 987.9
00 18.07 З 5
{10}
50 км 10/10 400 м
[Frnb]
+13.3 +10.0 80 +11 +11 999.3 988.7 +12.7 0.0
03 18.07 СЗ 4
{10}
50 км 10/10 1260 м
[Frnb]
+14.7 +10.3 75 +14 +14 1001.0 990.5
06 18.07 С 4 50 км 10/3 1500 м
[Sc Ac As]
+15.1 +3.2 45 +14 +16 1003.2 992.6
09 18.07 С 5 50 км 8/0
[Ac As]
+15.3 +2.9 43 +14 +15 1004.5 993.9
12 18.07 С 4 50 км 9/0
[Ac As]
+12.1 +2.5 52 +10 +10 1006.5 995.8 +15.9
15 18.07 С 4 20 км слаб. дождь 10/0
[Ac As]
+10.1 +3.4 63 +8 +8 1007.4 996.5
18 18.07 З 2 50 км {дождь} 10/0
[Ac As]
+7.3 +5.3 87 +5 +5 1007.4 996.5
21 18.07 СЗ 1 20 км дым 10/0
[Ac As]
+8.1 +5.1 81 +7 +8 1007.9 997.0
00 19.07 С 4 10 км дым 10/0
[Ac und]
+12.5 +3.2 53 +11 +12 1008.3 997.5 +7.3 2
03 19.07 С 4 10 км дым 10/1 1000 м
[Cu med, cong Ac und]
+14.0 +1.9 44 +13 +15 1009.7 998.7
06 19.07 С 4 20 км дым 10/3 1000 м
[Cu med, cong Ac und]
+14.5 -0.2 36 +14 +15 1011.3 1000.6
09 19.07 СЗ 4 50 км 9/0
[Ac As]
+13.6 +0.6 41 +12 +13 1012.7 1002.0
12 19.07 СЗ 2 50 км 8/0
[Ac As]
+12.2 +1.1 47 +12 +12 1013.8 1003.0 +15.8

 

Местоположение метеостанции Намцы (Якутия, Россия): широта 62.72 долгота 129.60 высота над уровнем моря 90 м.

В архиве по умолчанию представлена погода в Намцах за последнюю неделю. Архивные данные за месяц целиком и за предыдущие месяцы, начиная с января 2011 года, Вы можете получить, выбрав интересующий диапазон дат из раскрывающегося списка и нажав кнопку "Ввод!".


*Определитесь, кто Вы:
робот инопланетянин человек

Внимание! Время в таблицах - всемирное. Для получения местного времени необходимо прибавить поправку, которая равна 9 ч.

Смотрите также архив погоды в соседних городах и на ближайших метеорологических станциях:

Погода в Якутске (Якутия, Россия) (80 км)
Погода в Батамае (Якутия, Россия) (90 км)
Погода в Верхоянском Перевозе (Якутия, Россия) (138 км)
Погода в Покровске (Якутия, Россия) (140 км)
Погода в Бердигестяхе (Якутия, Россия) (143 км)
Погода в Сеген-Кюеле (Якутия, Россия) (147 км)
Погода в Чурапче (Якутия, Россия) (173 км)
Погода в Сангаре (Якутия, Россия) (175 км)
Погода в Ытык-Кюёле (Якутия, Россия) (204 км)
Погода в Сого-Хае (Якутия, Россия) (235 км)

Пояснения к столбцам:

Ветер - указаны скорость ветра в м/с - средняя за 10 мин, порывы в срок и между сроками (в фигурных скобках) и направление, откуда дует ветер: С - северный, СВ - северо-восточный, В - восточный, ЮВ - юго-восточный, Ю - южный, ЮЗ - юго-западный, З - западный, СЗ - северо-западный.
Видимость - горизонтальная дальность видимости в метрах или километрах. При видимости от 1 до 10 км при отсутствии осадков обычно наблюдается дымка, при ухудшении видимости до 1 км и менее - туман. В сухую погоду видимость может ухудшаться дымом, пылью или мглою.
Явления - указаны атмосферные явления, наблюдавшиеся в срок или в последний час перед сроком; фигурными скобками обозначены явления, наблюдавшиеся между сроками (за 1-3 часа до срока); квадратными скобками обозначены град или гололедные отложения с указанием их диаметра в мм.
Облачность - указаны через наклонную черту общая и нижняя облачность в баллах и высота нижней границы облаков в метрах; квадратными скобками обозначены формы облаков: Ci - перистые, Cs - перисто-слоистые, Cc - перисто-кучевые, Ac - высококучевые, As - высокослоистые, Sc - слоисто-кучевые, Ns - слоисто-дождевые, Cu - кучевые, Cb - кучево-дождевые. Подробнее классификацию облаков см. в Атласе облаков (PDF).
T - Температура воздуха - температура, измеренная на высоте 2 м над землей.
Td - Температура точки росы - температура, при понижении до которой содержащийся в воздухе водяной пар достигнет насыщения.
f - Относительная влажность воздуха - влажноcть воздуха, измеренная на высоте 2 м над землей.
Te - Эффективная температура - температура, которую ощущает одетый по сезону человек в тени. Характеристика душности погоды. При расчете учитывается влияние влажности воздуха и скорости ветра на теплоощущения человека.
Tes - Эффективная температура на солнце - температура, которую ощущает человек, с поправкой на солнечный нагрев. Характеристика знойности погоды. Зависит от высоты солнца над горизонтом, облачности и скорости ветра. Ночью, в пасмурную погоду, а также при ветре 12 м/с и более поправка равна нулю.
P - Атмосферное давление - приведенное к уровню моря атмосферное давление.
Po - Атмосферное давление - измеренное на уровне метеостанции атмосферное давление.
Tmin - Минимальная температура - минимум температуры воздуха на высоте 2 м над землей.
Tmax - Максимальная температура - максимум температуры воздуха на высоте 2 м над землей.
R - Количество осадков - Количество выпавших осадков за период времени, мм. При наведении курсора мыши на число - период времени, за который выпало указанное количество осадков.
R24 - Количество осадков - Количество выпавших осадков за 24 часа, мм.
S - Снежный покров - Высота снежного покрова, см. При наведении курсора мыши на число - состояние снежного покрова и степень покрытия местности в баллах.